Weather History for Princeton, MN

Change the Weather History Date:

Saturday, September 28, 2013

  Actual Average Record
Temperature  
Mean Temperature 60 °F -  
Max Temperature 75 °F 62 °F 82 °F (2014)
Min Temperature 46 °F 39 °F 32 °F (2012)
Degree Days  
Heating Degree Days 4    
Growing Degree Days 10 (Base 50)    
Moisture  
Dew Point 53 °F    
Average Humidity 76    
Maximum Humidity 94    
Minimum Humidity 60    
Precipitation  
Precipitation 0.25 in - - ()
Sea Level Pressure  
Sea Level Pressure 29.76 in    
Wind  
Wind Speed 12 mph (South)    
Max Wind Speed 18 mph    
Max Gust Speed 26 mph    
Visibility 9 miles    
Events Rain    
Averages and records for this station are not official NWS values.
T = Trace of Precipitation, MM = Missing Value Source: NWS Daily Summary

Daily Weather History Graph

Daily Weather History Graph

Search for Another Location

Airport:

Trip Planner

Search our weather history database for the weather conditions in past years. The results will help you decide how hot, cold, wet, or windy it might be!

Date:

Astronomy

Sep. 28, 2013 Rise Set
Actual Time 7:09 AM CDT 6:59 PM CDT
Civil Twilight 6:39 AM CDT 7:29 PM CDT
Nautical Twilight 6:05 AM CDT 8:03 PM CDT
Astronomical Twilight 5:29 AM CDT 8:38 PM CDT
Moon 12:42 AM CDT (9/28) 3:33 PM CDT (9/28)
Length of Visible Light 12h 49m
Length of Day
11h 50m
Waning Crescent, 36% of the Moon is Illuminated
Sep 28
Waning Crescent
Oct 4
New
Oct 11
First Quarter
Oct 18
Full
Oct 26
Last Quarter

Hourly Weather History & Observations

Time (CDT) Temp. Windchill Dew Point Humidity Pressure Visibility Wind Dir Wind Speed Gust Speed Precip Events Conditions
12:13 AM 75.2 °F - 60.8 °F 61% 29.79 in 10.0 mi SSE 13.8 mph 21.9 mph N/A   Clear
12:33 AM 75.2 °F - 60.8 °F 61% 29.78 in 10.0 mi SE 13.8 mph 20.7 mph N/A   Clear
12:53 AM 75.2 °F - 60.8 °F 61% 29.78 in 10.0 mi SE 15.0 mph 19.6 mph N/A   Scattered Clouds
1:13 AM 73.4 °F - 60.8 °F 65% 29.77 in 10.0 mi SE 12.7 mph 20.7 mph N/A   Clear
1:33 AM 73.4 °F - 60.8 °F 65% 29.77 in 10.0 mi SE 12.7 mph 20.7 mph N/A   Clear
1:53 AM 73.4 °F - 59.0 °F 61% 29.77 in 10.0 mi SE 11.5 mph - N/A   Clear
2:13 AM 71.6 °F - 59.0 °F 64% 29.77 in 10.0 mi SE 12.7 mph 19.6 mph N/A   Clear
2:33 AM 71.6 °F - 59.0 °F 64% 29.77 in 10.0 mi SE 16.1 mph 19.6 mph N/A   Clear
2:53 AM 71.6 °F - 59.0 °F 64% 29.75 in 10.0 mi SE 10.4 mph 20.7 mph N/A   Clear
3:13 AM 71.6 °F - 57.2 °F 60% 29.75 in 10.0 mi SE 12.7 mph 19.6 mph N/A   Clear
3:33 AM 69.8 °F - 57.2 °F 64% 29.74 in 10.0 mi SE 12.7 mph 18.4 mph N/A   Clear
3:53 AM 69.8 °F - 57.2 °F 64% 29.74 in 10.0 mi SE 16.1 mph - N/A   Mostly Cloudy
4:13 AM 69.8 °F - 57.2 °F 64% 29.73 in 10.0 mi SE 12.7 mph 16.1 mph N/A   Scattered Clouds
4:33 AM 69.8 °F - 59.0 °F 68% 29.72 in 10.0 mi SE 11.5 mph 19.6 mph N/A   Scattered Clouds
4:53 AM 69.8 °F - 59.0 °F 68% 29.71 in 10.0 mi SE 13.8 mph 20.7 mph N/A   Mostly Cloudy
5:13 AM 69.8 °F - 59.0 °F 68% 29.70 in 10.0 mi SE 12.7 mph 17.3 mph N/A   Scattered Clouds
5:34 AM 69.8 °F - 59.0 °F 68% 29.70 in 10.0 mi SE 12.7 mph - N/A   Mostly Cloudy
5:53 AM 69.8 °F - 59.0 °F 68% 29.69 in 10.0 mi SE 15.0 mph 23.0 mph N/A   Scattered Clouds
6:13 AM 69.8 °F - 59.0 °F 68% 29.68 in 10.0 mi SE 15.0 mph 20.7 mph N/A   Scattered Clouds
6:33 AM 69.8 °F - 59.0 °F 68% 29.68 in 10.0 mi SE 13.8 mph 20.7 mph N/A   Mostly Cloudy
6:53 AM 69.8 °F - 59.0 °F 68% 29.67 in 10.0 mi SE 15.0 mph 20.7 mph N/A   Mostly Cloudy
7:13 AM 69.8 °F - 59.0 °F 68% 29.67 in 10.0 mi SE 13.8 mph 19.6 mph N/A   Mostly Cloudy
7:34 AM 69.8 °F - 59.0 °F 68% 29.66 in 10.0 mi SE 12.7 mph 20.7 mph N/A   Overcast
7:53 AM 69.8 °F - 59.0 °F 68% 29.65 in 10.0 mi SE 15.0 mph 24.2 mph N/A   Overcast
8:13 AM 69.8 °F - 59.0 °F 68% 29.65 in 10.0 mi SE 15.0 mph 24.2 mph N/A   Overcast
8:33 AM 69.8 °F - 60.8 °F 73% 29.65 in 10.0 mi SSE 17.3 mph 26.5 mph N/A Rain Light Rain
8:53 AM 66.2 °F - 60.8 °F 83% 29.64 in 10.0 mi SSE 12.7 mph 20.7 mph N/A   Overcast
9:13 AM 66.2 °F - 60.8 °F 83% 29.64 in 10.0 mi SSE 10.4 mph - N/A   Overcast
9:33 AM 66.2 °F - 60.8 °F 83% 29.63 in 5.0 mi SE 12.7 mph - 0.03 in Rain Rain
9:53 AM 64.4 °F - 62.6 °F 94% 29.62 in 7.0 mi SE 11.5 mph 16.1 mph 0.06 in Rain Light Rain
10:13 AM 64.4 °F - 62.6 °F 94% 29.61 in 10.0 mi SE 12.7 mph 18.4 mph 0.02 in Rain Light Rain
10:33 AM 64.4 °F - 62.6 °F 94% 29.61 in 5.0 mi SSE 11.5 mph 17.3 mph 0.03 in Rain Light Rain
10:53 AM 64.4 °F - 62.6 °F 94% 29.61 in 5.0 mi SSE 12.7 mph 19.6 mph 0.05 in Rain Light Rain
11:13 AM 64.4 °F - 62.6 °F 94% 29.64 in 4.0 mi WSW 18.4 mph 24.2 mph 0.04 in Rain Heavy Rain
11:33 AM 57.2 °F - 53.6 °F 88% 29.67 in 4.0 mi WSW 13.8 mph 23.0 mph 0.06 in Rain Rain
11:53 AM 55.4 °F - 53.6 °F 94% 29.68 in 4.0 mi WSW 12.7 mph 18.4 mph 0.07 in   Drizzle
12:13 PM 55.4 °F - 51.8 °F 88% 29.70 in 4.0 mi WSW 15.0 mph 24.2 mph N/A   Drizzle
12:33 PM 55.4 °F - 51.8 °F 88% 29.71 in 7.0 mi WSW 12.7 mph 17.3 mph 0.05 in Rain Rain
12:53 PM 55.4 °F - 51.8 °F 88% 29.72 in 10.0 mi WSW 16.1 mph 23.0 mph 0.07 in   Drizzle
1:13 PM 55.4 °F - 51.8 °F 88% 29.72 in 10.0 mi WSW 12.7 mph 17.3 mph N/A Rain Rain
1:33 PM 55.4 °F - 51.8 °F 88% 29.72 in 10.0 mi WSW 11.5 mph 18.4 mph N/A Rain Rain
1:53 PM 57.2 °F - 53.6 °F 88% 29.72 in 10.0 mi WSW 11.5 mph 19.6 mph N/A   Overcast
2:13 PM 57.2 °F - 53.6 °F 88% 29.73 in 10.0 mi WSW 10.4 mph 16.1 mph N/A   Mostly Cloudy
2:33 PM 57.2 °F - 51.8 °F 82% 29.75 in 10.0 mi WSW 11.5 mph 16.1 mph N/A   Overcast
2:53 PM 59.0 °F - 53.6 °F 82% 29.75 in 10.0 mi WSW 10.4 mph 17.3 mph N/A   Overcast
3:13 PM 60.8 °F - 51.8 °F 72% 29.76 in 10.0 mi WSW 13.8 mph 17.3 mph N/A   Overcast
3:33 PM 60.8 °F - 51.8 °F 72% 29.77 in 10.0 mi SW 13.8 mph 18.4 mph N/A   Overcast
3:53 PM 59.0 °F - 50.0 °F 72% 29.78 in 10.0 mi WSW 10.4 mph 19.6 mph N/A   Overcast
4:13 PM 59.0 °F - 50.0 °F 72% 29.79 in 10.0 mi WSW 10.4 mph 18.4 mph N/A   Overcast
4:33 PM 59.0 °F - 48.2 °F 67% 29.80 in 10.0 mi WSW 12.7 mph 18.4 mph N/A   Overcast
4:53 PM 57.2 °F - 48.2 °F 72% 29.81 in 10.0 mi WSW 11.5 mph 16.1 mph N/A   Overcast
5:13 PM 59.0 °F - 48.2 °F 67% 29.82 in 10.0 mi WSW 11.5 mph - N/A   Overcast
5:33 PM 57.2 °F - 48.2 °F 72% 29.82 in 10.0 mi WSW 12.7 mph 17.3 mph N/A   Overcast
5:53 PM 57.2 °F - 48.2 °F 72% 29.83 in 10.0 mi WSW 8.1 mph - N/A   Overcast
6:13 PM 57.2 °F - 46.4 °F 67% 29.84 in 10.0 mi WSW 8.1 mph - N/A   Scattered Clouds
6:33 PM 57.2 °F - 46.4 °F 67% 29.85 in 10.0 mi WSW 9.2 mph - N/A   Scattered Clouds
6:53 PM 57.2 °F - 46.4 °F 67% 29.87 in 10.0 mi WSW 9.2 mph 17.3 mph N/A   Mostly Cloudy
7:13 PM 55.4 °F - 44.6 °F 67% 29.88 in 10.0 mi WSW 6.9 mph - N/A   Scattered Clouds
7:33 PM 55.4 °F - 44.6 °F 67% 29.89 in 10.0 mi West 9.2 mph - N/A   Clear
7:53 PM 53.6 °F - 44.6 °F 72% 29.90 in 10.0 mi WSW 5.8 mph - N/A   Clear
8:13 PM 51.8 °F - 44.6 °F 76% 29.91 in 10.0 mi Calm Calm - N/A   Clear
8:33 PM 51.8 °F - 44.6 °F 76% 29.91 in 10.0 mi Calm Calm - N/A   Clear
8:53 PM 50.0 °F - 44.6 °F 82% 29.91 in 10.0 mi Calm Calm - N/A   Clear
9:13 PM 46.4 °F - 42.8 °F 87% 29.91 in 10.0 mi Calm Calm - N/A   Clear
9:33 PM 46.4 °F - 44.6 °F 93% 29.91 in 10.0 mi Calm Calm - N/A   Clear
9:53 PM 46.4 °F - 44.6 °F 93% 29.91 in 10.0 mi Calm Calm - N/A   Clear
10:13 PM 46.4 °F - 42.8 °F 87% 29.91 in 10.0 mi Calm Calm - N/A   Clear
10:33 PM 46.4 °F 45.2 °F 42.8 °F 87% 29.91 in 10.0 mi South 3.5 mph - N/A   Clear
10:53 PM 46.4 °F 45.2 °F 42.8 °F 87% 29.91 in 10.0 mi South 3.5 mph - N/A   Clear
11:13 PM 46.4 °F 45.2 °F 42.8 °F 87% 29.92 in 10.0 mi South 3.5 mph - N/A   Clear
11:33 PM 46.4 °F - 42.8 °F 87% 29.92 in 10.0 mi Calm Calm - N/A   Clear
11:54 PM 46.4 °F 45.2 °F 42.8 °F 87% 29.92 in 10.0 mi SSE 3.5 mph - N/A   Clear